{"data":{"norad_id":56170,"intl_designator":"2023-050J","name":"BB 2","alt_names":[],"object_type":"PAYLOAD","status":"ACTIVE","operator":null,"country":"US","launch_date":"2023-04-02","launch_site_code":"AFWTR","launch_vehicle":null,"mission":null,"orbit_class":"UNKNOWN","rcs_meters":null,"size_class":null,"mass_kg":null,"dimensions":null,"purposes":[],"wikipedia_slug":null,"has_3d_model":false,"image_url":null,"decayed_at":null,"tle_current":{"epoch":"2026-05-24T23:21:20.757888Z","epoch_age_seconds":67508,"freshness":"FRESH","line1":"1 56170U 23050J   26144.97315692  .00000350  00000+0  19580-3 0  9991","line2":"2 56170  81.0014 101.6742 0010373  10.1966 349.9412 14.08863171158402","mean_motion":14.08863171,"eccentricity":0.0010373,"inclination_deg":81.0014,"raan_deg":101.6742,"arg_perigee_deg":10.1966,"mean_anomaly_deg":349.9412,"bstar":0.0001958,"rev_number":15840,"period_min":102.21006763758,"perigee_km":855.75303995733,"apogee_km":870.7760516042,"semimajor_km":7241.4015457808,"source":"CELESTRAK","updated_at":"2026-05-25T13:37:59.370583Z"}}}